Project,Study,Ord_Occ,Event_Num,Cast_ID,Date_Time_UTC,Date_Time_PST,Lat_Dec,Lon_Dec,Sta_ID,Line,Sta,Depth,Pressure,PrQ,Temp1,Temp1Q,Temp2,Temp2Q,TempAve,Salt1,Salt1Q,Salt1_Corr,Salt2,Salt2Q,Salt2_Corr,SaltAve_Corr,Ox1,Ox1Q,Ox1_CruiseCorr,Ox1_StaCorr,Ox2,Ox2Q,Ox2_CruiseCorr,Ox2_StaCorr,OxAve_StaCorr,Ox1uM,Ox1uM_CruiseCorr,Ox1uM_StaCorr,Ox2uM,Ox2uM_CruiseCorr,Ox2uM_StaCorr,OxAveuM_StaCorr,FluorV,FluorQ,EstChl_CruiseCorr,EstChl_StaCorr,ISUSV,ISUSQ,EstNO3_CruiseCorr,EstNO3_StaCorr,SigThetaTS1,SigThetaTS1Q,SigThetaTS2,SigThetaTS2Q,BAT,XMiss,TransQ,pH,pHQ,SPAR,SPARQ,PAR,PARQ,PoT1,PoT2,DynHt,SVA,OxSat1,OxSat2,BTL_Depth,BTL_Temp,SaltB,OxB,OxBuM,Chl-a,Phaeo,NO3,NO2,NH4,PO4,SIL
CalCOFI,2007SR,047,,2007_047d,22-Jul-2020 02:15:14,21-Jul-2020 18:15:14,31.91082,-124.16982,083.3 110.0,083.3,110.0,2.000,2.014,,18.6889,,18.6894,,18.6892,33.4448,,33.4450,33.4461,,33.4477,33.4464,5.2352,,5.4526,5.5116,4.0919,,5.8274,4.3809,4.9463,228.345,237.8812,240.6095,178.478,392.9545,182.6277,211.6186,0.0353,,,0.0771,0.0961,,0.0000,,23.9112,,23.9121,,0.7014,83.9165,,8.110,,7.9879E+01,,3.4532E+00,,18.6886,18.6891,0.0013,,97.829,76.465,,,,,,,,,,,,
CalCOFI,2007SR,047,,2007_047d,22-Jul-2020 02:15:27,21-Jul-2020 18:15:27,31.91082,-124.16982,083.3 110.0,083.3,110.0,3.000,3.021,,18.6904,,18.6905,,18.6905,33.4455,,33.4457,33.4462,,33.4478,33.4468,5.2289,,5.4460,5.5048,4.0909,,5.8250,4.3786,4.9417,228.069,237.5931,240.3139,178.433,392.2794,182.5228,211.4184,0.0363,,0.0023,0.0839,-99.0,,-99.0,,23.9114,,23.9119,,0.6964,84.0216,,8.111,,7.8438E+01,,2.9428E+00,,18.6898,18.6899,0.0099,,97.713,76.448,3,18.680,33.4459,5.455,238.14,0.095,0.006,0.0,0.00,0.12,0.25,0.87
CalCOFI,2007SR,047,,2007_047d,22-Jul-2020 02:15:35,21-Jul-2020 18:15:35,31.91082,-124.16982,083.3 110.0,083.3,110.0,4.000,4.028,,18.6926,,18.6922,,18.6924,33.4454,,33.4456,33.4461,,33.4477,33.4467,5.2361,,5.4535,5.5126,4.0901,,5.8231,4.3767,4.9447,228.382,237.9199,240.6491,178.398,393.0450,182.4413,211.5452,0.0351,,,0.0758,-99.0,,-99.0,,23.9108,,23.9114,,0.6967,84.0147,,8.113,,7.8074E+01,,2.6008E+00,,18.6919,18.6915,0.0186,,97.852,76.436,,,,,,,,,,,,
CalCOFI,2007SR,047,,2007_047d,22-Jul-2020 02:15:37,21-Jul-2020 18:15:37,31.91082,-124.16982,083.3 110.0,083.3,110.0,5.000,5.035,,18.6930,,18.6928,,18.6929,33.4452,,33.4454,33.4459,,33.4475,33.4465,5.2358,,5.4532,5.5122,4.0931,,5.8303,4.3836,4.9479,228.369,237.9063,240.6352,178.527,393.0132,182.7419,211.6886,0.0350,,,0.0751,0.0001,,0.0000,,23.9107,,23.9112,,0.6964,84.0209,,8.114,,7.8075E+01,,2.4476E+00,,18.6921,18.6920,0.0226,,97.846,76.492,,,,,,,,,,,,
CalCOFI,2007SR,047,,2007_047d,22-Jul-2020 02:15:40,21-Jul-2020 18:15:40,31.91082,-124.16982,083.3 110.0,083.3,110.0,6.000,6.042,,18.6927,,18.6929,,18.6928,33.4453,,33.4455,33.4459,,33.4475,33.4465,5.2336,,5.4509,5.5099,4.0937,,5.8317,4.3850,4.9475,228.274,237.8071,240.5334,178.556,392.7808,182.8094,211.6714,0.0348,,,0.0738,0.0001,,0.0000,,23.9108,,23.9112,,0.6955,84.0402,,8.112,,7.8075E+01,,2.2846E+00,,18.6917,18.6919,0.0266,,97.806,76.504,,,,,,,,,,,,
CalCOFI,2007SR,047,,2007_047d,22-Jul-2020 02:15:43,21-Jul-2020 18:15:43,31.91082,-124.16983,083.3 110.0,083.3,110.0,7.000,7.049,,18.6901,,18.6902,,18.6902,33.4453,,33.4455,33.4459,,33.4475,33.4465,5.2330,,5.4503,5.5092,4.0945,,5.8336,4.3869,4.9481,228.249,237.7810,240.5067,178.589,392.7197,182.8863,211.6965,0.0352,,,0.0765,0.0002,,0.0000,,23.9115,,23.9119,,0.6962,84.0255,,8.113,,7.8075E+01,,2.1399E+00,,18.6889,18.6890,0.0306,,97.790,76.514,,,,,,,,,,,,
CalCOFI,2007SR,047,,2007_047d,22-Jul-2020 02:15:44,21-Jul-2020 18:15:44,31.91082,-124.16982,083.3 110.0,083.3,110.0,8.000,8.056,,18.6907,,18.6907,,18.6907,33.4454,,33.4456,33.4461,,33.4477,33.4467,5.2318,,5.4490,5.5080,4.0950,,5.8348,4.3880,4.9480,228.196,237.7257,240.4499,178.609,392.5900,182.9329,211.6914,0.0352,,,0.0765,0.0003,,0.0000,,23.9115,,23.9120,,0.6967,84.0138,,8.114,,7.8075E+01,,2.0256E+00,,18.6893,18.6893,0.0346,,97.768,76.524,,,,,,,,,,,,
CalCOFI,2007SR,047,,2007_047d,22-Jul-2020 02:15:45,21-Jul-2020 18:15:45,31.91084,-124.16982,083.3 110.0,083.3,110.0,9.000,9.063,,18.6938,,18.6937,,18.6938,33.4453,,33.4455,33.4460,,33.4476,33.4466,5.2355,,5.4529,5.5119,4.0952,,5.8353,4.3885,4.9502,228.355,237.8917,240.6202,178.621,392.9789,182.9609,211.7906,0.0353,,,0.0771,0.0004,,0.0000,,23.9107,,23.9112,,0.6969,84.0101,,8.114,,7.8075E+01,,1.9017E+00,,18.6923,18.6921,0.0386,,97.842,76.533,,,,,,,,,,,,
CalCOFI,2007SR,047,,2007_047d,22-Jul-2020 02:15:48,21-Jul-2020 18:15:48,31.91082,-124.16982,083.3 110.0,083.3,110.0,10.000,10.070,,18.6936,,18.6929,,18.6933,33.4453,,33.4455,33.4460,,33.4476,33.4466,5.2327,,5.4499,5.5089,4.0958,,5.8367,4.3899,4.9494,228.235,237.7664,240.4917,178.646,392.6854,183.0191,211.7554,0.0349,,,0.0744,0.0005,,0.0000,,23.9107,,23.9115,,0.6970,84.0077,,8.113,,7.8075E+01,,1.7820E+00,,18.6919,18.6911,0.0426,,97.790,76.543,,,,,,,,,,,,
CalCOFI,2007SR,047,,2007_047d,22-Jul-2020 02:15:51,21-Jul-2020 18:15:51,31.91082,-124.16982,083.3 110.0,083.3,110.0,11.000,11.077,,18.6871,,18.6890,,18.6881,33.4446,,33.4448,33.4453,,33.4469,33.4459,5.2395,,5.4571,5.5162,4.0966,,5.8386,4.3917,4.9540,228.533,238.0775,240.8109,178.683,393.4143,183.1054,211.9582,0.0348,,,0.0738,0.0005,,0.0000,,23.9118,,23.9119,,0.6966,84.0157,,8.113,,7.8075E+01,,1.7193E+00,,18.6852,18.6871,0.0467,,97.906,76.553,11,18.673,33.4435,5.456,238.21,0.113,0.005,0.0,0.00,0.17,0.24,0.85
CalCOFI,2007SR,047,,2007_047d,22-Jul-2020 02:15:52,21-Jul-2020 18:15:52,31.91084,-124.16982,083.3 110.0,083.3,110.0,12.000,12.084,,18.6902,,18.6907,,18.6905,33.4455,,33.4457,33.4461,,33.4477,33.4467,5.2369,,5.4543,5.5134,4.0970,,5.8396,4.3926,4.9530,228.418,237.9575,240.6877,178.701,393.1330,183.1473,211.9175,0.0357,,,0.0799,0.0006,,0.0000,,23.9118,,23.9122,,0.6967,84.0149,,8.114,,7.8075E+01,,1.6201E+00,,18.6881,18.6886,0.0507,,97.863,76.563,,,,,,,,,,,,
CalCOFI,2007SR,047,,2007_047d,22-Jul-2020 02:15:54,21-Jul-2020 18:15:54,31.91084,-124.16982,083.3 110.0,083.3,110.0,13.000,13.092,,18.6922,,18.6923,,18.6923,33.4453,,33.4455,33.4460,,33.4476,33.4466,5.2322,,5.4494,5.5084,4.0975,,5.8408,4.3938,4.9511,228.212,237.7424,240.4670,178.719,392.6292,183.1893,211.8282,0.0352,,,0.0765,0.0006,,0.0000,,23.9112,,23.9117,,0.6974,84.0003,,8.113,,7.8075E+01,,1.5668E+00,,18.6899,18.6900,0.0547,,97.778,76.573,,,,,,,,,,,,
CalCOFI,2007SR,047,,2007_047d,22-Jul-2020 02:15:56,21-Jul-2020 18:15:56,31.91084,-124.16982,083.3 110.0,083.3,110.0,14.000,14.099,,18.6939,,18.6923,,18.6931,33.4453,,33.4455,33.4459,,33.4475,33.4465,5.2352,,5.4526,5.5116,4.0979,,5.8417,4.3947,4.9532,228.344,237.8802,240.6084,178.737,392.9520,183.2312,211.9198,0.0354,,,0.0778,0.0006,,0.0000,,23.9109,,23.9117,,0.6982,83.9831,,8.113,,7.8075E+01,,1.5072E+00,,18.6914,18.6899,0.0587,,97.838,76.581,,,,,,,,,,,,
CalCOFI,2007SR,047,,2007_047d,22-Jul-2020 02:15:58,21-Jul-2020 18:15:58,31.91084,-124.16982,083.3 110.0,083.3,110.0,15.000,15.106,,18.6814,,18.6772,,18.6793,33.4439,,33.4441,33.4438,,33.4454,33.4448,5.2406,,5.4582,5.5174,4.0996,,5.8458,4.3986,4.9580,228.581,238.1276,240.8623,178.814,393.5317,183.4106,212.1365,0.0350,,,0.0751,0.0005,,0.0000,,23.9129,,23.9139,,0.6975,83.9973,,8.114,,7.8075E+01,,1.4460E+00,,18.6788,18.6745,0.0627,,97.916,76.591,,,,,,,,,,,,
CalCOFI,2007SR,047,,2007_047d,22-Jul-2020 02:16:00,21-Jul-2020 18:16:00,31.91084,-124.16982,083.3 110.0,083.3,110.0,16.000,16.113,,18.6681,,18.6662,,18.6672,33.4427,,33.4429,33.4437,,33.4453,33.4441,5.2407,,5.4583,5.5175,4.1019,,5.8513,4.4039,4.9607,228.583,238.1297,240.8644,178.910,393.5366,183.6343,212.2494,0.0351,,,0.0758,0.0005,,0.0000,,23.9154,,23.9167,,0.6985,83.9773,,8.115,,7.8075E+01,,1.3968E+00,,18.6653,18.6634,0.0667,,97.891,76.617,,,,,,,,,,,,
CalCOFI,2007SR,047,,2007_047d,22-Jul-2020 02:16:02,21-Jul-2020 18:16:02,31.91084,-124.16982,083.3 110.0,083.3,110.0,17.000,17.120,,18.6582,,18.6545,,18.6564,33.4421,,33.4423,33.4421,,33.4437,33.4430,5.2455,,5.4633,5.5226,4.1029,,5.8537,4.4062,4.9644,228.792,238.3479,241.0883,178.956,394.0478,183.7415,212.4149,0.0355,,,0.0785,0.0020,,0.0000,,23.9174,,23.9184,,0.6985,83.9762,,8.114,,7.6961E+01,,1.3405E+00,,18.6553,18.6515,0.0708,,97.963,76.619,,,,,,,,,,,,
CalCOFI,2007SR,047,,2007_047d,22-Jul-2020 02:16:05,21-Jul-2020 18:16:05,31.91084,-124.16982,083.3 110.0,083.3,110.0,18.000,18.127,,18.6274,,18.6280,,18.6277,33.4386,,33.4388,33.4392,,33.4408,33.4398,5.2559,,5.4742,5.5338,4.1083,,5.8665,4.4187,4.9763,229.243,238.8187,241.5713,179.188,395.1508,184.2821,212.9267,0.0365,,0.0047,0.0853,0.0164,,0.0000,,23.9225,,23.9228,,0.6994,83.9578,,8.114,,7.6724E+01,,1.2914E+00,,18.6243,18.6249,0.0748,,98.097,76.679,,,,,,,,,,,,
CalCOFI,2007SR,047,,2007_047d,22-Jul-2020 02:16:07,21-Jul-2020 18:16:07,31.91084,-124.16982,083.3 110.0,083.3,110.0,19.000,19.134,,18.6005,,18.6008,,18.6007,33.4375,,33.4377,33.4383,,33.4399,33.4388,5.2540,,5.4722,5.5318,4.1099,,5.8704,4.4224,4.9771,229.159,238.7310,241.4813,179.259,394.9454,184.4475,212.9644,0.0378,,0.0199,0.0940,0.0317,,0.0000,,23.9284,,23.9289,,0.7021,83.9008,,8.114,,7.8049E+01,,1.2449E+00,,18.5971,18.5975,0.0788,,98.012,76.670,,,,,,,,,,,,
CalCOFI,2007SR,047,,2007_047d,22-Jul-2020 02:16:09,21-Jul-2020 18:16:09,31.91084,-124.16982,083.3 110.0,083.3,110.0,20.000,20.141,,18.5812,,18.5799,,18.5806,33.4367,,33.4369,33.4370,,33.4386,33.4378,5.2562,,5.4745,5.5341,4.1149,,5.8823,4.4339,4.9840,229.254,238.8302,241.5831,179.475,395.1777,184.9508,213.2670,0.0372,,0.0129,0.0900,0.0445,,0.0000,,23.9326,,23.9332,,0.7006,83.9323,,8.115,,7.8075E+01,,1.2139E+00,,18.5777,18.5764,0.0828,,98.017,76.732,,,,,,,,,,,,
CalCOFI,2007SR,047,,2007_047d,22-Jul-2020 02:16:10,21-Jul-2020 18:16:10,31.91084,-124.16982,083.3 110.0,083.3,110.0,21.000,21.148,,18.5587,,18.5551,,18.5569,33.4360,,33.4362,33.4365,,33.4381,33.4372,5.2508,,5.4689,5.5283,4.1160,,5.8849,4.4365,4.9824,229.018,238.5838,241.3303,179.521,394.6005,185.0580,213.1942,0.0368,,0.0082,0.0873,0.0516,,0.0000,,23.9378,,23.9391,,0.7030,83.8825,,8.115,,7.7960E+01,,1.1687E+00,,18.5550,18.5515,0.0868,,97.874,76.717,,,,,,,,,,,,
CalCOFI,2007SR,047,,2007_047d,22-Jul-2020 02:16:12,21-Jul-2020 18:16:12,31.91084,-124.16982,083.3 110.0,083.3,110.0,22.000,22.155,,18.5429,,18.5459,,18.5444,33.4378,,33.4380,33.4388,,33.4404,33.4392,5.2544,,5.4726,5.5322,4.1175,,5.8885,4.4399,4.9861,229.176,238.7487,241.4996,179.588,394.9870,185.2141,213.3569,0.0377,,0.0188,0.0934,0.0576,,0.0000,,23.9432,,23.9431,,0.7022,83.8996,,8.115,,7.6279E+01,,1.1276E+00,,18.5390,18.5421,0.0908,,97.914,76.733,,,,,,,,,,,,
CalCOFI,2007SR,047,,2007_047d,22-Jul-2020 02:16:15,21-Jul-2020 18:16:15,31.91084,-124.16984,083.3 110.0,083.3,110.0,23.000,23.162,,18.5058,,18.5064,,18.5061,33.4350,,33.4352,33.4358,,33.4374,33.4363,5.2618,,5.4804,5.5401,4.1221,,5.8995,4.4505,4.9953,229.496,239.0828,241.8423,179.787,395.7696,185.6778,213.7601,0.0364,,0.0035,0.0846,0.0568,,0.0000,,23.9502,,23.9507,,0.7009,83.9269,,8.115,,7.7438E+01,,1.0841E+00,,18.5018,18.5024,0.0948,,97.982,76.760,,,,,,,,,,,,
CalCOFI,2007SR,047,,2007_047d,22-Jul-2020 02:16:17,21-Jul-2020 18:16:17,31.91084,-124.16984,083.3 110.0,083.3,110.0,24.000,24.170,,18.4464,,18.4466,,18.4465,33.4340,,33.4342,33.4341,,33.4357,33.4350,5.2739,,5.4930,5.5531,4.1298,,5.9179,4.4683,5.0107,230.019,239.6287,242.4025,180.123,397.0488,186.4607,214.4316,0.0375,,0.0164,0.0920,0.0514,,0.0000,,23.9643,,23.9643,,0.7004,83.9376,,8.116,,7.8080E+01,,1.0513E+00,,18.4422,18.4424,0.0987,,98.096,76.817,,,,,,,,,,,,
CalCOFI,2007SR,047,,2007_047d,22-Jul-2020 02:16:18,21-Jul-2020 18:16:18,31.91084,-124.16982,083.3 110.0,083.3,110.0,25.000,25.177,,18.3781,,18.3768,,18.3775,33.4312,,33.4314,33.4313,,33.4329,33.4322,5.2923,,5.5122,5.5728,4.1332,,5.9260,4.4761,5.0245,230.821,240.4659,243.2615,180.266,399.0104,186.7939,215.0277,0.0382,,0.0246,0.0967,0.0441,,0.0000,,23.9791,,23.9795,,0.6988,83.9707,,8.116,,7.7352E+01,,1.0237E+00,,18.3737,18.3725,0.1027,,98.311,76.777,,,,,,,,,,,,
CalCOFI,2007SR,047,,2007_047d,22-Jul-2020 02:16:20,21-Jul-2020 18:16:20,31.91084,-124.16983,083.3 110.0,083.3,110.0,26.000,26.184,,18.3300,,18.3444,,18.3372,33.4319,,33.4321,33.4355,,33.4371,33.4346,5.2905,,5.5103,5.5709,4.1365,,5.9339,4.4837,5.0273,230.740,240.3814,243.1747,180.408,398.8123,187.1248,215.1498,0.0389,,0.0329,0.1014,0.0309,,0.0000,,23.9915,,23.9907,,0.6988,83.9715,,8.116,,7.6247E+01,,9.9379E-01,,18.3255,18.3399,0.1066,,98.189,76.793,26,18.265,33.4344,5.530,241.41,0.118,0.014,0.0,0.00,0.12,0.24,0.85
CalCOFI,2007SR,047,,2007_047d,22-Jul-2020 02:16:23,21-Jul-2020 18:16:23,31.91084,-124.16984,083.3 110.0,083.3,110.0,27.000,27.191,,18.3136,,18.3316,,18.3226,33.4296,,33.4298,33.4298,,33.4314,33.4306,5.3020,,5.5224,5.5832,4.1401,,5.9425,4.4920,5.0376,231.241,240.9044,243.7113,180.565,400.0377,187.4906,215.6010,0.0388,,0.0317,0.1008,0.0099,,0.0000,,23.9939,,23.9896,,0.6993,83.9607,,8.116,,7.6171E+01,,9.6196E-01,,18.3089,18.3269,0.1106,,98.371,76.839,,,,,,,,,,,,
CalCOFI,2007SR,047,,2007_047d,22-Jul-2020 02:16:25,21-Jul-2020 18:16:25,31.91084,-124.16984,083.3 110.0,083.3,110.0,28.000,28.198,,18.2458,,18.2395,,18.2427,33.4286,,33.4288,33.4285,,33.4301,33.4295,5.3120,,5.5328,5.5939,4.1502,,5.9666,4.5153,5.0546,231.671,241.3533,244.1719,181.000,401.0894,188.5042,216.3381,0.0404,,0.0505,0.1115,0.0010,,0.0000,,24.0098,,24.0113,,0.7008,83.9289,,8.116,,7.7256E+01,,9.3487E-01,,18.2410,18.2347,0.1145,,98.428,76.891,,,,,,,,,,,,
CalCOFI,2007SR,047,,2007_047d,22-Jul-2020 02:16:27,21-Jul-2020 18:16:27,31.91084,-124.16984,083.3 110.0,083.3,110.0,29.000,29.205,,18.2090,,18.2083,,18.2087,33.4282,,33.4284,33.4291,,33.4307,33.4296,5.3147,,5.5356,5.5968,4.1527,,5.9725,4.5211,5.0590,231.786,241.4733,244.2951,181.112,401.3707,188.7651,216.5301,0.0403,,0.0493,0.1108,0.0005,,0.0000,,24.0186,,24.0194,,0.7017,83.9088,,8.117,,7.8096E+01,,9.0202E-01,,18.2040,18.2033,0.1184,,98.410,76.894,,,,,,,,,,,,
CalCOFI,2007SR,047,,2007_047d,22-Jul-2020 02:16:28,21-Jul-2020 18:16:28,31.91084,-124.16984,083.3 110.0,083.3,110.0,30.000,30.212,,18.1874,,18.1883,,18.1879,33.4278,,33.4280,33.4287,,33.4303,33.4292,5.3170,,5.5380,5.5993,4.1549,,5.9778,4.5262,5.0628,231.884,241.5756,244.4000,181.206,401.6103,188.9842,216.6921,0.0421,,0.0704,0.1229,0.0005,,0.0000,,24.0236,,24.0241,,0.7041,83.8595,,8.117,,7.8075E+01,,8.7576E-01,,18.1822,18.1832,0.1224,,98.411,76.905,,,,,,,,,,,,
CalCOFI,2007SR,047,,2007_047d,22-Jul-2020 02:16:31,21-Jul-2020 18:16:31,31.91084,-124.16983,083.3 110.0,083.3,110.0,31.000,31.220,,18.1812,,18.1755,,18.1784,33.4281,,33.4283,33.4297,,33.4313,33.4298,5.3198,,5.5410,5.6023,4.1565,,5.9816,4.5299,5.0661,232.007,241.7040,244.5318,181.272,401.9112,189.1379,216.8349,0.0426,,0.0763,0.1262,0.0005,,0.0000,,24.0254,,24.0281,,0.7028,83.8862,,8.117,,7.6179E+01,,8.5470E-01,,18.1759,18.1702,0.1263,,98.452,76.916,,,,,,,,,,,,
CalCOFI,2007SR,047,,2007_047d,22-Jul-2020 02:16:33,21-Jul-2020 18:16:33,31.91084,-124.16984,083.3 110.0,083.3,110.0,32.000,32.227,,18.1319,,18.1309,,18.1314,33.4271,,33.4273,33.4279,,33.4295,33.4284,5.3338,,5.5556,5.6173,4.1628,,5.9967,4.5444,5.0809,232.614,242.3377,245.1819,181.549,403.3958,189.7834,217.4827,0.0429,,0.0798,0.1282,0.0004,,0.0000,,24.0368,,24.0377,,0.7049,83.8424,,8.117,,7.7632E+01,,8.2232E-01,,18.1264,18.1254,0.1302,,98.618,76.968,,,,,,,,,,,,
CalCOFI,2007SR,047,,2007_047d,22-Jul-2020 02:16:35,21-Jul-2020 18:16:35,31.91084,-124.16984,083.3 110.0,083.3,110.0,33.000,33.234,,18.0973,,18.0993,,18.0983,33.4267,,33.4269,33.4276,,33.4292,33.4281,5.3425,,5.5647,5.6266,4.1651,,6.0021,4.5497,5.0882,232.994,242.7343,245.5889,181.647,404.3253,190.0117,217.8003,0.0435,,0.0869,0.1323,0.0004,,0.0000,,24.0450,,24.0452,,0.7058,83.8226,,8.117,,7.8078E+01,,7.9749E-01,,18.0916,18.0936,0.1341,,98.715,76.964,,,,,,,,,,,,
CalCOFI,2007SR,047,,2007_047d,22-Jul-2020 02:16:36,21-Jul-2020 18:16:36,31.91084,-124.16983,083.3 110.0,083.3,110.0,34.000,34.241,,18.0536,,18.0540,,18.0538,33.4257,,33.4259,33.4268,,33.4284,33.4272,5.3457,,5.5680,5.6301,4.1710,,6.0162,4.5633,5.0967,233.130,242.8763,245.7346,181.903,404.6579,190.6082,218.1714,0.0454,,0.1092,0.1449,0.0004,,0.0000,,24.0550,,24.0557,,0.7071,83.7958,,8.117,,7.7391E+01,,7.8181E-01,,18.0478,18.0482,0.1380,,98.691,77.006,,,,,,,,,,,,
CalCOFI,2007SR,047,,2007_047d,22-Jul-2020 02:16:39,21-Jul-2020 18:16:39,31.91084,-124.16983,083.3 110.0,083.3,110.0,35.000,35.248,,18.0370,,18.0527,,18.0449,33.4264,,33.4266,33.4283,,33.4299,33.4283,5.3532,,5.5759,5.6381,4.1721,,6.0189,4.5659,5.1020,233.456,243.2166,246.0838,181.949,405.4552,190.7154,218.3996,0.0472,,0.1303,0.1568,0.0004,,0.0000,,24.0597,,24.0572,,0.7084,83.7691,,8.117,,7.7146E+01,,7.4017E-01,,18.0310,18.0467,0.1419,,98.799,77.025,,,,,,,,,,,,
CalCOFI,2007SR,047,,2007_047d,22-Jul-2020 02:16:42,21-Jul-2020 18:16:42,31.91084,-124.16984,083.3 110.0,083.3,110.0,36.000,36.255,,17.9368,,17.9417,,17.9393,33.4204,,33.4206,33.4213,,33.4229,33.4218,5.3756,,5.5993,5.6621,4.1861,,6.0523,4.5982,5.1302,234.429,244.2323,247.1259,182.555,407.8351,192.1274,219.6267,0.0467,,0.1245,0.1535,0.0005,,0.0000,,24.0795,,24.0790,,0.7100,83.7365,,8.118,,7.8095E+01,,7.2428E-01,,17.9307,17.9355,0.1458,,99.021,77.117,,,,,,,,,,,,
CalCOFI,2007SR,047,,2007_047d,22-Jul-2020 02:16:43,21-Jul-2020 18:16:43,31.91084,-124.16984,083.3 110.0,083.3,110.0,37.000,37.263,,17.8833,,17.8853,,17.8843,33.4179,,33.4181,33.4186,,33.4202,33.4192,5.3874,,5.6116,5.6748,4.1921,,6.0666,4.6120,5.1434,234.944,244.7699,247.6775,182.817,409.0947,192.7379,220.2077,0.0455,,0.1104,0.1456,0.0005,,0.0000,,24.0907,,24.0907,,0.7091,83.7545,,8.118,,7.7485E+01,,7.0371E-01,,17.8770,17.8790,0.1496,,99.137,77.145,,,,,,,,,,,,
CalCOFI,2007SR,047,,2007_047d,22-Jul-2020 02:16:44,21-Jul-2020 18:16:44,31.91084,-124.16982,083.3 110.0,083.3,110.0,38.000,38.270,,17.8435,,17.8444,,17.8440,33.4157,,33.4159,33.4166,,33.4182,33.4171,5.3883,,5.6125,5.6758,4.1952,,6.0740,4.6191,5.1475,234.979,244.8065,247.7150,182.948,409.1803,193.0432,220.3791,0.0477,,0.1362,0.1601,0.0005,,0.0000,,24.0987,,24.0991,,0.7089,83.7592,,8.118,,7.6212E+01,,6.8581E-01,,17.8370,17.8379,0.1535,,99.076,77.140,,,,,,,,,,,,
CalCOFI,2007SR,047,,2007_047d,22-Jul-2020 02:16:46,21-Jul-2020 18:16:46,31.91084,-124.16982,083.3 110.0,083.3,110.0,39.000,39.277,,17.7987,,17.7964,,17.7976,33.4141,,33.4143,33.4180,,33.4196,33.4170,5.3884,,5.6126,5.6759,4.2008,,6.0874,4.6321,5.1540,234.983,244.8107,247.7193,183.188,409.1901,193.6024,220.6609,0.0479,,0.1385,0.1615,0.0005,,0.0000,,24.1083,,24.1119,,0.7096,83.7448,,8.118,,7.7918E+01,,6.6530E-01,,17.7921,17.7898,0.1573,,98.994,77.172,,,,,,,,,,,,
CalCOFI,2007SR,047,,2007_047d,22-Jul-2020 02:16:50,21-Jul-2020 18:16:50,31.91084,-124.16982,083.3 110.0,083.3,110.0,40.000,40.284,,17.6517,,17.6356,,17.6437,33.3929,,33.3931,33.3951,,33.3967,33.3949,5.4427,,5.6694,5.7341,4.2327,,6.1635,4.7057,5.2199,237.344,247.2753,250.2481,184.576,414.9647,196.8365,223.5423,0.0499,,0.1620,0.1747,0.0005,,0.0000,,24.1276,,24.1331,,0.7095,83.7468,,8.119,,7.8083E+01,,6.3696E-01,,17.6450,17.6289,0.1611,,99.697,77.509,40,17.677,33.3952,,246.73,0.216,0.031,0.0,0.00,0.15,0.25,0.94
CalCOFI,2007SR,047,,2007_047d,22-Jul-2020 02:16:52,21-Jul-2020 18:16:52,31.91084,-124.16982,083.3 110.0,083.3,110.0,41.000,41.292,,17.2460,,17.2463,,17.2462,33.3449,,33.3451,33.3453,,33.3469,33.3460,5.5446,,5.7759,5.8433,4.2729,,6.2595,4.7984,5.3209,241.774,251.8998,254.9930,186.321,425.7999,200.9025,227.9478,0.0511,,0.1761,0.1826,0.0005,,0.0000,,24.1877,,24.1880,,0.7082,83.7737,,8.121,,7.8075E+01,,6.1010E-01,,17.2392,17.2395,0.1649,,100.749,77.642,,,,,,,,,,,,
CalCOFI,2007SR,047,,2007_047d,22-Jul-2020 02:16:53,21-Jul-2020 18:16:53,31.91084,-124.16982,083.3 110.0,083.3,110.0,42.000,42.299,,16.9410,,16.9410,,16.9410,33.3237,,33.3239,33.3235,,33.3251,33.3245,5.6016,,5.8354,5.9045,4.3004,,6.3251,4.8618,5.3832,244.245,254.4793,257.6396,187.511,431.8436,203.6753,230.6575,0.0523,,0.1902,0.1904,0.0005,,0.0000,,24.2435,,24.2433,,0.7098,83.7391,,8.123,,7.8075E+01,,5.9610E-01,,16.9341,16.9342,0.1687,,101.175,77.674,,,,,,,,,,,,
CalCOFI,2007SR,047,,2007_047d,22-Jul-2020 02:16:55,21-Jul-2020 18:16:55,31.91084,-124.16982,083.3 110.0,083.3,110.0,43.000,43.306,,16.7472,,16.7516,,16.7494,33.3114,,33.3116,33.3138,,33.3154,33.3135,5.6299,,5.8650,5.9348,4.3207,,6.3736,4.9086,5.4217,245.472,255.7601,258.9538,188.390,434.8447,205.7234,232.3386,0.0531,,0.1996,0.1957,0.0005,,0.0000,,24.2793,,24.2801,,0.7110,83.7139,,8.124,,7.8075E+01,,5.8480E-01,,16.7403,16.7446,0.1724,,101.299,77.751,,,,,,,,,,,,
CalCOFI,2007SR,047,,2007_047d,22-Jul-2020 02:16:57,21-Jul-2020 18:16:57,31.91084,-124.16982,083.3 110.0,083.3,110.0,44.000,44.313,,16.5699,,16.5693,,16.5696,33.3042,,33.3044,33.3161,,33.3177,33.3111,5.6571,,5.8934,5.9640,4.3464,,6.4350,4.9679,5.4660,246.650,256.9898,260.2155,189.501,437.7259,208.3122,234.2639,0.0537,,0.2067,0.1996,0.0005,,0.0000,,24.3149,,24.3242,,0.7113,83.7077,,8.126,,7.8075E+01,,5.7018E-01,,16.5628,16.5622,0.1760,,101.434,77.937,,,,,,,,,,,,
CalCOFI,2007SR,047,,2007_047d,22-Jul-2020 02:16:59,21-Jul-2020 18:16:59,31.91084,-124.16982,083.3 110.0,083.3,110.0,45.000,45.320,,16.2947,,16.2796,,16.2872,33.2816,,33.2818,33.2853,,33.2869,33.2844,5.7303,,5.9699,6.0424,4.3858,,6.5290,5.0588,5.5506,249.829,260.3084,263.6205,191.210,445.5013,212.2943,237.9574,0.0528,,0.1961,0.1937,0.0005,,0.0000,,24.3608,,24.3671,,0.7109,83.7162,,8.127,,7.8075E+01,,5.4300E-01,,16.2876,16.2725,0.1796,,102.183,78.187,,,,,,,,,,,,
CalCOFI,2007SR,047,,2007_047d,22-Jul-2020 02:17:01,21-Jul-2020 18:17:01,31.91084,-124.16982,083.3 110.0,083.3,110.0,46.000,46.328,,16.0097,,16.0102,,16.0100,33.2497,,33.2499,33.2523,,33.2539,33.2519,5.7917,,6.0340,6.1083,4.4156,,6.6002,5.1276,5.6180,252.495,263.0914,266.4760,192.501,452.0219,215.3024,240.8892,0.0539,,0.2090,0.2009,0.0005,,0.0000,,24.4010,,24.4029,,0.7099,83.7388,,8.128,,7.8075E+01,,5.2291E-01,,16.0025,16.0030,0.1832,,102.683,78.288,,,,,,,,,,,,
CalCOFI,2007SR,047,,2007_047d,22-Jul-2020 02:17:03,21-Jul-2020 18:17:03,31.91084,-124.16982,083.3 110.0,083.3,110.0,47.000,47.335,,15.8939,,15.9021,,15.8980,33.2470,,33.2472,33.2493,,33.2509,33.2491,5.8113,,6.0545,6.1293,4.4286,,6.6312,5.1575,5.6434,253.343,263.9767,267.3843,193.067,454.0960,216.6212,242.0028,0.0534,,0.2032,0.1976,0.0005,,0.0000,,24.4251,,24.4250,,0.7090,83.7575,,8.128,,7.8075E+01,,5.0831E-01,,15.8866,15.8947,0.1868,,102.795,78.351,,,,,,,,,,,,
CalCOFI,2007SR,047,,2007_047d,22-Jul-2020 02:17:04,21-Jul-2020 18:17:04,31.91084,-124.16982,083.3 110.0,083.3,110.0,48.000,48.342,,15.8338,,15.8153,,15.8246,33.2474,,33.2476,33.2549,,33.2565,33.2521,5.8035,,6.0464,6.1209,4.4404,,6.6594,5.1848,5.6529,253.001,263.6196,267.0180,193.576,453.2595,217.8072,242.4126,0.0538,,0.2079,0.2003,0.0041,,0.0000,,24.4389,,24.4488,,0.7072,83.7950,,8.127,,7.8075E+01,,4.8865E-01,,15.8263,15.8078,0.1903,,102.537,78.429,,,,,,,,,,,,
CalCOFI,2007SR,047,,2007_047d,22-Jul-2020 02:17:08,21-Jul-2020 18:17:08,31.91084,-124.16982,083.3 110.0,083.3,110.0,49.000,49.349,,15.7764,,15.8035,,15.7900,33.2482,,33.2484,33.2568,,33.2584,33.2534,5.8037,,6.0466,6.1211,4.4607,,6.7078,5.2316,5.6764,253.005,263.6238,267.0222,194.462,453.2693,219.8717,243.4470,0.0532,,0.2008,0.1963,0.0261,,0.0000,,24.4524,,24.4529,,0.7089,83.7589,,8.126,,7.8075E+01,,4.5021E-01,,15.7688,15.7959,0.1938,,102.424,78.770,,,,,,,,,,,,
CalCOFI,2007SR,047,,2007_047d,22-Jul-2020 02:17:10,21-Jul-2020 18:17:10,31.91083,-124.16982,083.3 110.0,083.3,110.0,50.000,50.357,,15.5628,,15.5491,,15.5560,33.2414,,33.2416,33.2421,,33.2437,33.2427,5.8282,,6.0722,6.1474,4.4944,,6.7883,5.3093,5.7284,254.065,264.7304,268.1576,195.921,455.8619,223.2713,245.7145,0.0538,,0.2079,0.2003,0.0435,,0.0000,,24.4948,,24.4983,,0.7038,83.8662,,8.127,,7.8075E+01,,4.0758E-01,,15.5551,15.5414,0.1973,,102.421,78.961,50,15.625,33.2533,,265.61,0.255,0.007,0.0,0.00,0.10,0.27,1.15